Regional Weather Roundup
Issued by NWS

Home | Current Version | Previous Version | Graphics & Text | Print | Product List | Glossary On
Versions: 1 2 3 4 5 6 7 8 9 10 11 12 13 14 15 16 17 18 19 20 21 22 23 24 25 26 27 28 29 30 31 32 33 34 35 36 37 38 39 40 41 42 43 44 45 46 47 48 49 50
000
ASUS43 KDTX 221110
RWRMI
MICHIGAN HOURLY REGIONAL WEATHER ROUNDUP
NATIONAL WEATHER SERVICE DETROIT/PONTIAC MI
700 AM EDT FRI JUN 22 2018

NOTE: "FAIR" INDICATES FEW OR NO CLOUDS BELOW 12,000 FEET WITH NO
SIGNIFICANT WEATHER AND/OR OBSTRUCTION TO VISIBILITY.

MIZ047>049-052>055-059>063-066>070-074>076-081>083-221200-
SOUTHEAST LOWER MICHIGAN

CITY           SKY/WX    TMP DP  RH WIND       PRES   REMARKS
ADRIAN         CLOUDY    63  52  67 E12       29.80F
ALMA           FAIR      56  51  83 CALM      29.89R
ANN ARBOR      CLOUDY    63  47  55 NE9       29.82R
BAD AXE        FAIR      56  49  78 E6        29.91R
CARO           FAIR      56  47  71 E5        29.88R
DETROIT CITY   FAIR      64  47  53 E7        29.85R
DETROIT        CLOUDY    67  49  52 E12       29.83R
FLINT          FAIR      61  45  55 E8        29.86R
GROSSE ILE     CLOUDY    64  53  67 NE9       29.81S
HILLSDALE      CLOUDY    63  52  67 E12G17    29.79S
HOWELL         LGT RAIN  63  40  42 E7        29.84R

CITY           SKY/WX    TMP DP  RH WIND       PRES   REMARKS
JACKSON        CLOUDY    63  48  58 NE9       29.81S
LAMBERTVILLE   CLOUDY    69  61  75 E9G17     29.78S
LANSING        CLOUDY    59  49  69 NE6       29.85R
LAPEER         FAIR      59  44  57 E3        29.88R
MASON          CLOUDY    61  48  61 NE3       29.83R
MONROE         CLOUDY    64  55  73 NE8       29.79F
MT. CLEMENS    LGT RAIN  63  48  59 E10       29.85R
PONTIAC        MOCLDY    62  42  47 E9        29.84R
PORT HOPE        N/A     59  53  80 E13       29.90S
PORT HURON     FAIR      63  41  45 E10G16    29.87R
TRI CITIES     FAIR      61  49  64 NE9       29.88S
MIDLAND        FAIR      55  50  82 CALM      29.89R
TROY           FAIR      65  40  39 E8        29.87R
SAGINAW HB     FAIR      59  48  67 E5        29.87R
$$
MIZ043>046-050>051-056>058-064>065-071>073-077>080-221200-
SOUTHWEST LOWER MICHIGAN

CITY           SKY/WX    TMP DP  RH WIND       PRES   REMARKS
BATTLE CREEK   CLOUDY    62  49  62 NE9       29.81S
BENTON HARBOR  LGT RAIN  59  56  89 NE10      29.77S FOG
BIG RAPIDS     FAIR      55  43  64 N3        29.89R
COLDWATER      LGT RAIN  62  55  78 NE5       29.79R
FREMONT        FAIR      59  48  67 E8        29.85S
HOLLAND        CLOUDY    62  49  62 E8        29.81S
GRAND RAPIDS   CLOUDY    60  49  66 NE9       29.83S
IONIA          CLOUDY    58  49  72 NE12      29.84R
KALAMAZOO      LGT RAIN  61  52  72 E5        29.80S
LUDINGTON      FAIR      56  40  54 E6        29.87R
MARSHALL       CLOUDY    62  49  62 NE3       29.80S
MOUNT PLEASANT FAIR      55  48  76 N5        29.88S
MUSKEGON       CLOUDY    61  45  55 NE10      29.84R
SOUTH HAVEN    RAIN      58  53  85 NE5       29.79S
$$
MIZ016>042-221200-
NORTHERN LOWER MICHIGAN

CITY           SKY/WX    TMP DP  RH WIND       PRES   REMARKS
ALPENA         FAIR      47  45  93 CALM      29.96R
BEAVER ISLAND  FAIR      57  43  60 E10       29.95R
BELLAIRE       FAIR      53  40  62 N5        29.93R
CADILLAC       FAIR      50  39  67 E6        29.91R
CHARLEVOIX     FAIR      58  39  50 E13       29.96R
FRANKFORT      FAIR      58  39  50 E3        29.90R
GAYLORD        FAIR      51  39  63 E3        29.95R
GRAYLING       FAIR      46  39  78 CALM      29.93R
HARBOR SPRINGS FAIR      52  48  86 E9        29.95R
HOUGHTON LAKE  FAIR      50  41  71 NE6       29.93R
MANISTEE       FAIR      53  45  74 E5        29.88R
OSCODA         FAIR      47  42  81 NW5       29.93S
PELLSTON       FAIR      44  42  93 CALM      29.96R
ROGERS CITY    FAIR      47  45  92 CALM      29.97S
TRAVERSE CITY  MOCLDY    49  44  83 CALM      29.91R
$$
MIZ007>008-015-221200-
EASTERN UPPER MICHIGAN

CITY           SKY/WX    TMP DP  RH WIND       PRES   REMARKS
KINROSS        FAIR      53  47  79 E5        29.98
MACKINAC ISLAN FAIR      55  49  81 E9        29.96R
NEWBERRY       FAIR      51  40  67 CALM      29.96S
S. S. MARIE    FAIR      52  46  80 E6        29.97R
MUNISING         N/A     43  42  97 S6        29.94S
$$
MIZ004>006-011>014-085-221200-
CENTRAL UPPER MICHIGAN

CITY           SKY/WX    TMP DP  RH WIND       PRES   REMARKS
MANISTIQUE     FAIR      44  42  95 CALM      29.95R
ESCANABA       FAIR      48  44  86 CALM      29.94R
MENOMINEE      FAIR      52  50  93 N3        29.93R
SAWYER-GWINN   CLEAR     41  37  87 CALM      29.96R
$$
MIZ001>003-009>011-084-221200-
WESTERN UPPER MICHIGAN

CITY           SKY/WX    TMP DP  RH WIND       PRES   REMARKS
IRON MOUNTAIN  FAIR      46  44  93 CALM      29.94R
HOUGHTON       FAIR      54  48  80 NW6       29.94R
COPPER HARBOR    N/A     48  41  76 N6        29.93S
IRONWOOD       FAIR      47  46  97 CALM      29.96R
$$

ABBREVIATIONS USED IN REMARKS
   TC - TEMPERATURE IN CELSIUS
  WCI - WIND CHILL INDEX
   HX - HEAT INDEX
  VSB - VISIBILITY





USA.gov is the U.S. government's official web portal to all federal, state and local government web resources and services.